Cumberland, WI

10:43 AM CST on December 05, 2016 (GMT -0600)
Cumberland Municipal

Weather History for KUBE - February, 2013

Change the Weather History Date:

Tuesday, February 19, 2013

  Actual Average (KRPD) Record (KRPD)
Temperature  
Mean Temperature 6 °F -  
Max Temperature 12 °F 27 °F 44 °F (1998)
Min Temperature 0 °F 11 °F -21 °F (2015)
Degree Days  
Heating Degree Days 59    
Moisture  
Dew Point -6 °F    
Average Humidity 64    
Maximum Humidity 78    
Minimum Humidity 52    
Precipitation  
Precipitation 0.00 in - - ()
Sea Level Pressure  
Sea Level Pressure 29.95 in    
Wind  
Wind Speed 18 mph (NW)    
Max Wind Speed 24 mph    
Max Gust Speed 36 mph    
Visibility 9 miles    
Events Snow    
Averages and records for this station are not official NWS values.
T = Trace of Precipitation, MM = Missing Value Source: NWS Daily Summary

Daily Weather History Graph

Daily Weather History Graph

Search for Another Location

Airport or City:

Trip Planner

Search our weather history database for the weather conditions in past years. The results will help you decide how hot, cold, wet, or windy it might be!

Date:

Astronomy

Feb. 19, 2013 Rise Set
Actual Time 7:02 AM CST 5:41 PM CST
Civil Twilight 6:32 AM CST 6:11 PM CST
Nautical Twilight 5:58 AM CST 6:45 PM CST
Astronomical Twilight 5:24 AM CST 7:20 PM CST
Moon 12:03 PM CST (2/19) 2:44 AM CST (2/19)
Length of Visible Light 11h 38m
Length of Day
10h 38m
Waxing Gibbous, 67% of the Moon is Illuminated
Feb 19
Waxing Gibbous
Feb 25
Full
Mar 4
Last Quarter
Mar 11
New
Mar 19
First Quarter

Hourly Weather History & Observations

Time (CST) Temp. Windchill Dew Point Humidity Pressure Visibility Wind Dir Wind Speed Gust Speed Precip Events Conditions
12:35 AM 12.2 °F -6.7 °F 5.0 °F 73% 29.66 in 5.0 mi NW 21.9 mph 29.9 mph N/A Snow Light Snow
12:55 AM 12.2 °F -3.7 °F 5.0 °F 73% 29.67 in 10.0 mi NW 15.0 mph - N/A Snow Light Snow
1:15 AM 10.4 °F -6.6 °F 3.2 °F 73% 29.67 in 10.0 mi NW 16.1 mph 24.2 mph N/A Snow Light Snow
1:35 AM 10.4 °F -6.0 °F 3.2 °F 73% 29.69 in 10.0 mi NW 15.0 mph 26.5 mph N/A   Overcast
1:55 AM 8.6 °F -10.0 °F 1.4 °F 73% 29.69 in 10.0 mi NW 18.4 mph 24.2 mph N/A   Overcast
2:15 AM 8.6 °F -9.5 °F 1.4 °F 73% 29.70 in 10.0 mi NW 17.3 mph 26.5 mph N/A Snow Light Snow
2:35 AM 6.8 °F -13.4 °F -0.4 °F 72% 29.71 in 10.0 mi NW 20.7 mph 26.5 mph N/A Snow Light Snow
2:55 AM 6.8 °F -12.9 °F -0.4 °F 72% 29.72 in 7.0 mi NW 19.6 mph 31.1 mph N/A Snow Light Snow
3:15 AM 5.0 °F -16.2 °F -0.4 °F 78% 29.72 in 7.0 mi NW 21.9 mph 31.1 mph N/A Snow Light Snow
3:35 AM 5.0 °F -16.2 °F -2.2 °F 72% 29.73 in 7.0 mi NW 21.9 mph 28.8 mph N/A Snow Light Snow
3:55 AM 5.0 °F -15.7 °F -2.2 °F 72% 29.74 in 7.0 mi NW 20.7 mph 28.8 mph N/A Snow Light Snow
4:15 AM 5.0 °F -14.7 °F -4.0 °F 66% 29.74 in 7.0 mi NW 18.4 mph 28.8 mph N/A Snow Light Snow
4:35 AM 5.0 °F -14.7 °F -4.0 °F 66% 29.75 in 7.0 mi NW 18.4 mph 28.8 mph N/A Snow Light Snow
4:55 AM 3.2 °F -18.6 °F -4.0 °F 72% 29.75 in 7.0 mi NW 21.9 mph 27.6 mph N/A Snow Light Snow
5:15 AM 3.2 °F -18.6 °F -4.0 °F 72% 29.76 in 7.0 mi NW 21.9 mph 28.8 mph N/A Snow Light Snow
5:55 AM 3.2 °F -18.1 °F -4.0 °F 72% 29.79 in 5.0 mi NW 20.7 mph 35.7 mph N/A Snow Light Snow
6:15 AM 1.4 °F -20.5 °F -5.8 °F 72% 29.80 in 7.0 mi NW 20.7 mph 31.1 mph N/A   Overcast
6:35 AM 1.4 °F -19.9 °F -5.8 °F 72% 29.81 in 5.0 mi NW 19.6 mph 25.3 mph N/A   Haze
6:55 AM 1.4 °F -21.4 °F -5.8 °F 72% 29.81 in 5.0 mi NW 23.0 mph 31.1 mph N/A   Haze
7:15 AM -0.4 °F -24.3 °F -7.6 °F 72% 29.83 in 7.0 mi NW 24.2 mph 29.9 mph N/A   Overcast
7:35 AM -0.4 °F -22.8 °F -7.6 °F 72% 29.84 in 7.0 mi NW 20.7 mph 27.6 mph N/A   Mostly Cloudy
7:55 AM -0.4 °F -22.8 °F -7.6 °F 72% 29.86 in 7.0 mi NW 20.7 mph 27.6 mph N/A   Overcast
8:15 AM -0.4 °F -23.3 °F -7.6 °F 72% 29.87 in 10.0 mi NW 21.9 mph 31.1 mph N/A   Mostly Cloudy
8:35 AM -0.4 °F -23.8 °F -9.4 °F 66% 29.88 in 10.0 mi NNW 23.0 mph 28.8 mph N/A   Scattered Clouds
8:55 AM -0.4 °F -19.9 °F -7.6 °F 72% 29.89 in 10.0 mi NW 15.0 mph 28.8 mph N/A   Scattered Clouds
9:15 AM -0.4 °F -22.3 °F -9.4 °F 66% 29.89 in 10.0 mi NW 19.6 mph 26.5 mph N/A   Scattered Clouds
9:35 AM -0.4 °F -24.3 °F -9.4 °F 66% 29.91 in 10.0 mi NW 24.2 mph 28.8 mph N/A   Scattered Clouds
9:55 AM -0.4 °F -21.2 °F -9.4 °F 66% 29.92 in 10.0 mi NW 17.3 mph 28.8 mph N/A   Scattered Clouds
10:15 AM -0.4 °F -19.9 °F -9.4 °F 66% 29.93 in 10.0 mi NW 15.0 mph 25.3 mph N/A   Clear
10:35 AM 1.4 °F -19.4 °F -9.4 °F 61% 29.93 in 10.0 mi NW 18.4 mph 24.2 mph N/A   Clear
10:55 AM 1.4 °F -18.8 °F -9.4 °F 61% 29.94 in 10.0 mi NNW 17.3 mph 24.2 mph N/A   Clear
11:15 AM 3.2 °F -18.1 °F -9.4 °F 56% 29.95 in 10.0 mi NW 20.7 mph 25.3 mph N/A   Clear
11:35 AM 3.2 °F -17.1 °F -7.6 °F 61% 29.95 in 10.0 mi NW 18.4 mph 25.3 mph N/A   Clear
11:55 AM 3.2 °F -15.9 °F -7.6 °F 61% 29.96 in 10.0 mi NW 16.1 mph 25.3 mph N/A   Clear
12:15 PM 5.0 °F -13.6 °F -7.6 °F 56% 29.96 in 10.0 mi NW 16.1 mph 24.2 mph N/A   Clear
12:35 PM 5.0 °F -14.2 °F -7.6 °F 56% 29.97 in 10.0 mi NW 17.3 mph 20.7 mph N/A   Clear
12:55 PM 6.8 °F -11.3 °F -5.8 °F 56% 29.97 in 10.0 mi WNW 16.1 mph 26.5 mph N/A   Clear
1:15 PM 6.8 °F -12.4 °F -5.8 °F 56% 29.98 in 10.0 mi WNW 18.4 mph 25.3 mph N/A   Clear
1:35 PM 8.6 °F -9.5 °F -5.8 °F 52% 29.98 in 10.0 mi NW 17.3 mph 24.2 mph N/A   Clear
1:55 PM 8.6 °F -8.3 °F -5.8 °F 52% 29.98 in 10.0 mi NW 15.0 mph 26.5 mph N/A   Clear
2:15 PM 8.6 °F -8.9 °F -5.8 °F 52% 29.99 in 10.0 mi NW 16.1 mph 25.3 mph N/A   Clear
2:35 PM 8.6 °F -10.0 °F -5.8 °F 52% 30.00 in 10.0 mi NW 18.4 mph 24.2 mph N/A   Clear
2:55 PM 8.6 °F -10.0 °F -5.8 °F 52% 30.01 in 10.0 mi NW 18.4 mph 23.0 mph N/A   Clear
3:15 PM 8.6 °F -9.5 °F -5.8 °F 52% 30.02 in 10.0 mi NW 17.3 mph 23.0 mph N/A   Clear
3:35 PM 8.6 °F -9.5 °F -5.8 °F 52% 30.03 in 10.0 mi NW 17.3 mph 23.0 mph N/A   Clear
3:55 PM 8.6 °F -7.7 °F -5.8 °F 52% 30.05 in 10.0 mi NW 13.8 mph - N/A   Clear
4:15 PM 8.6 °F -8.9 °F -5.8 °F 52% 30.06 in 10.0 mi NW 16.1 mph 19.6 mph N/A   Clear
4:35 PM 8.6 °F -7.0 °F -5.8 °F 52% 30.07 in 10.0 mi NW 12.7 mph - N/A   Clear
4:55 PM 8.6 °F -8.9 °F -5.8 °F 52% 30.08 in 10.0 mi NW 16.1 mph 20.7 mph N/A   Clear
5:15 PM 8.6 °F -7.7 °F -5.8 °F 52% 30.09 in 10.0 mi NW 13.8 mph - N/A   Clear
6:35 PM 5.0 °F -13.0 °F -7.6 °F 56% 30.13 in 10.0 mi NNW 15.0 mph 20.7 mph N/A   Clear
7:35 PM 3.2 °F -15.9 °F -7.6 °F 61% 30.16 in 10.0 mi NNW 16.1 mph 19.6 mph N/A   Clear
7:55 PM 3.2 °F -15.3 °F -7.6 °F 61% 30.17 in 10.0 mi NNW 15.0 mph - N/A   Clear
8:15 PM 3.2 °F -15.9 °F -7.6 °F 61% 30.17 in 10.0 mi NNW 16.1 mph 24.2 mph N/A   Clear
8:35 PM 3.2 °F -15.3 °F -7.6 °F 61% 30.18 in 10.0 mi NNW 15.0 mph 20.7 mph N/A   Clear
8:55 PM 3.2 °F -12.2 °F -7.6 °F 61% 30.20 in 10.0 mi NNW 10.4 mph 19.6 mph N/A   Clear
9:15 PM 1.4 °F -14.5 °F -7.6 °F 66% 30.20 in 10.0 mi NNW 10.4 mph - N/A   Clear
9:35 PM 3.2 °F -13.9 °F -7.6 °F 61% 30.21 in 10.0 mi North 12.7 mph 19.6 mph N/A   Clear
9:55 PM 3.2 °F -12.2 °F -7.6 °F 61% 30.22 in 10.0 mi NNW 10.4 mph 17.3 mph N/A   Clear
10:15 PM 1.4 °F -16.1 °F -7.6 °F 66% 30.22 in 10.0 mi North 12.7 mph - N/A   Clear
10:35 PM 1.4 °F -16.1 °F -7.6 °F 66% 30.22 in 10.0 mi North 12.7 mph 20.7 mph N/A   Clear
10:55 PM 1.4 °F -14.5 °F -7.6 °F 66% 30.23 in 10.0 mi North 10.4 mph - N/A   Clear
11:15 PM 1.4 °F -13.5 °F -7.6 °F 66% 30.23 in 10.0 mi NNW 9.2 mph - N/A   Clear
11:35 PM 1.4 °F -15.3 °F -7.6 °F 66% 30.24 in 10.0 mi North 11.5 mph 17.3 mph N/A   Clear
11:55 PM 1.4 °F -15.3 °F -7.6 °F 66% 30.24 in 10.0 mi North 11.5 mph - N/A   Clear